Lid_Strength_Index
15 14 15 16 17 18 18 18 18 18 18 19 18 18 18 18 18 18 18 18 18 18
15 16 16 17 17 18 19 18 19 19 19 19 19 18 18 18 18 18 18 17 17 18
15 16 17 17 18 19 19 19 19 20 20 19 19 19 19 19 18 18 18 18 18 18
16 17 17 18 19 19 19 19 20 20 20 19 19 19 20 20 19 19 19 19 19 19
17 17 18 19 20 19 20 20 20 20 20 20 20 20 20 20 20 20 20 20 20 19
17 18 19 19 20 20 20 20 20 20 21 21 20 20 20 20 21 21 20 20 20 19
18 18 19 20 20 20 21 21 21 20 20 20 21 20 21 20 21 20 20 19 19 19
18 19 20 20 20 21 21 21 20 21 21 20 21 21 21 20 20 20 20 19 18 18
19 20 20 20 20 20 20 21 20 21 21 21 21 19 18 18 20 19 20 20 19 18
20 20 20 20 20 21 21 21 21 22 22 22 22 19 18 18 19 19 19 19 19 18
20 21 21 21 21 22 21 21 22 22 22 22 22 19 19 18 19 19 19 19 18 18
21 21 21 22 22 22 21 22 22 22 23 23 23 21 19 18 20 19 19 18 17 16
20 20 21 22 22 21 22 22 22 22 23 24 26 21 19 18 19 20 19 18 16 16
20 21 21 21 22 22 23 23 23 24 23 23 22 22 19 17 18 19 18 19 18 17